"read_dt","SO2 (ppb)","flags","PMT voltage (V)","lamp voltage (V)","lamp intensity (Hz)","internal temp (C)","react chamber temp (C)","sample flow (l/min)","pres (mmHg)","SO2 bkg (ppb)","SO2 coefficient"
2016-02-23 00:00:00,1799E-3,5C000400,-0724,0836,12264,027.2,045.4,0.257,774.2,01.15,0.508
2016-02-23 00:01:00,1743E-3,5C000400,-0724,0836,12165,027.2,045.4,0.258,774.2,01.15,0.508
2016-02-23 00:02:00,1827E-3,5C000400,-0724,0837,12205,027.2,045.4,0.257,774.2,01.15,0.508
2016-02-23 00:03:00,1631E-3,5C000400,-0724,0836,12224,027.2,045.4,0.258,774.2,01.15,0.508
2016-02-23 00:04:00,1747E-3,5C000400,-0724,0837,11993,027.2,045.4,0.257,774.2,01.15,0.508
2016-02-23 00:05:00,1695E-3,5C000400,-0724,0836,12171,027.2,045.4,0.258,774.2,01.15,0.508
2016-02-23 00:06:00,1912E-3,5C000400,-0724,0836,12063,027.2,045.4,0.257,774.2,01.15,0.508
2016-02-23 00:07:00,1922E-3,5C000400,-0724,0835,12099,027.2,045.4,0.258,774.2,01.15,0.508
2016-02-23 00:08:00,1621E-3,5C000400,-0724,0836,12180,027.2,045.4,0.257,774.2,01.15,0.508
2016-02-23 00:09:00,1820E-3,5C000400,-0724,0836,12117,027.2,045.4,0.257,774.2,01.15,0.508
2016-02-23 00:10:00,1719E-3,5C000400,-0724,0836,12215,027.2,045.4,0.258,774.2,01.15,0.508
2016-02-23 00:11:00,1831E-3,5C000400,-0724,0836,12079,027.2,045.4,0.257,774.2,01.15,0.508
2016-02-23 00:12:00,1854E-3,5C000400,-0724,0835,12042,027.2,045.4,0.258,774.2,01.15,0.508
2016-02-23 00:13:00,1659E-3,5C000400,-0724,0837,12136,027.2,045.4,0.257,774.2,01.15,0.508
2016-02-23 00:14:00,1771E-3,5C000400,-0724,0836,12027,027.2,045.4,0.257,774.2,01.15,0.508
2016-02-23 00:15:00,1559E-3,5C000400,-0724,0836,12046,027.2,045.4,0.258,774.2,01.15,0.508
2016-02-23 00:16:00,1674E-3,5C000400,-0724,0836,12185,027.2,045.4,0.257,774.2,01.15,0.508
2016-02-23 00:17:00,1682E-3,5C000400,-0724,0836,12156,027.2,045.4,0.257,774.2,01.15,0.508
2016-02-23 00:18:00,1751E-3,5C000400,-0724,0836,12216,027.2,045.4,0.258,774.2,01.15,0.508
2016-02-23 00:19:00,1779E-3,5C000400,-0724,0836,12160,027.2,045.4,0.257,774.2,01.15,0.508
2016-02-23 00:20:00,1767E-3,5C000400,-0724,0836,12169,027.2,045.4,0.258,774.2,01.15,0.508
2016-02-23 00:21:00,1837E-3,5C000400,-0724,0835,12176,027.2,045.4,0.258,774.2,01.15,0.508
2016-02-23 00:22:00,1885E-3,5C000400,-0724,0836,12167,027.2,045.4,0.257,774.2,01.15,0.508
2016-02-23 00:23:00,1810E-3,5C000400,-0724,0835,12204,027.2,045.4,0.258,774.2,01.15,0.508
2016-02-23 00:24:00,1760E-3,5C000400,-0724,0836,12083,027.2,045.4,0.257,774.2,01.15,0.508
2016-02-23 00:25:00,1670E-3,5C000400,-0724,0835,12025,027.2,045.4,0.257,774.2,01.15,0.508
2016-02-23 00:26:00,1804E-3,5C000400,-0724,0836,12116,027.2,045.4,0.258,774.2,01.15,0.508
2016-02-23 00:27:00,1816E-3,5C000400,-0724,0836,12046,027.2,045.4,0.257,774.2,01.15,0.508
2016-02-23 00:28:00,1685E-3,5C000400,-0724,0836,12066,027.2,045.4,0.258,774.2,01.15,0.508
2016-02-23 00:29:00,1828E-3,5C000400,-0724,0836,12045,027.2,045.4,0.257,774.2,01.15,0.508
2016-02-23 00:30:00,1693E-3,5C000400,-0724,0836,12229,027.2,045.4,0.258,774.2,01.15,0.508
2016-02-23 00:31:00,1682E-3,5C000400,-0724,0836,12072,027.2,045.4,0.257,774.2,01.15,0.508
2016-02-23 00:32:00,1821E-3,5C000400,-0724,0835,12188,027.2,045.4,0.258,774.2,01.15,0.508
2016-02-23 00:33:00,1773E-3,5C000400,-0724,0836,12216,027.2,045.4,0.257,774.2,01.15,0.508
2016-02-23 00:34:00,1724E-3,5C000400,-0724,0836,12124,027.2,045.4,0.258,774.1,01.15,0.508
2016-02-23 00:35:00,1859E-3,5C000400,-0724,0837,12113,027.3,045.4,0.257,774.1,01.15,0.508
2016-02-23 00:36:00,1639E-3,5C000400,-0724,0836,12070,027.3,045.4,0.258,774.1,01.15,0.508
2016-02-23 00:37:00,1860E-3,5C000400,-0724,0836,12111,027.2,045.4,0.257,774.1,01.15,0.508
2016-02-23 00:38:00,1758E-3,5C000400,-0724,0836,12088,027.3,045.4,0.258,774.1,01.15,0.508
2016-02-23 00:39:00,1789E-3,5C000400,-0724,0836,12198,027.3,045.4,0.257,774.1,01.15,0.508
2016-02-23 00:40:00,1826E-3,5C000400,-0724,0836,12270,027.3,045.4,0.258,774.1,01.15,0.508
2016-02-23 00:41:00,1674E-3,5C000400,-0724,0836,12154,027.3,045.4,0.257,774.1,01.15,0.508
2016-02-23 00:42:00,1722E-3,5C000400,-0724,0836,12133,027.3,045.4,0.258,774.1,01.15,0.508
2016-02-23 00:43:00,1700E-3,5C000400,-0724,0836,12126,027.3,045.4,0.257,774.1,01.15,0.508
2016-02-23 00:44:00,1823E-3,5C000400,-0724,0836,12154,027.2,045.4,0.258,774.1,01.15,0.508
2016-02-23 00:45:00,1746E-3,5C000400,-0724,0835,12180,027.3,045.4,0.257,774.1,01.15,0.508
2016-02-23 00:46:00,1793E-3,5C000400,-0724,0835,12012,027.3,045.4,0.258,774.1,01.15,0.508
2016-02-23 00:47:00,1797E-3,5C000400,-0724,0836,11900,027.3,045.4,0.257,774.1,01.15,0.508
2016-02-23 00:48:00,1718E-3,5C000400,-0724,0836,12030,027.3,045.4,0.257,774.1,01.15,0.508
2016-02-23 00:49:00,1792E-3,5C000400,-0724,0836,11935,027.3,045.4,0.257,774.1,01.15,0.508
2016-02-23 00:50:00,1742E-3,5C000400,-0724,0836,12232,027.3,045.4,0.257,774.0,01.15,0.508
2016-02-23 00:51:00,1753E-3,5C000400,-0724,0836,12048,027.3,045.4,0.258,774.0,01.15,0.508
2016-02-23 00:52:00,1802E-3,5C000400,-0724,0836,12198,027.3,045.4,0.257,774.0,01.15,0.508
2016-02-23 00:53:00,1816E-3,5C000400,-0724,0835,12270,027.3,045.4,0.257,774.0,01.15,0.508
2016-02-23 00:54:00,1704E-3,5C000400,-0724,0835,11844,027.3,045.4,0.258,774.0,01.15,0.508
2016-02-23 00:55:00,1737E-3,5C000400,-0724,0835,12141,027.3,045.4,0.257,774.0,01.15,0.508
2016-02-23 00:56:00,1692E-3,5C000400,-0724,0836,12128,027.3,045.4,0.257,774.0,01.15,0.508
2016-02-23 00:57:00,1711E-3,5C000400,-0724,0837,12225,027.3,045.4,0.258,774.0,01.15,0.508
2016-02-23 00:58:00,1790E-3,5C000400,-0724,0835,12086,027.3,045.4,0.257,774.0,01.15,0.508
2016-02-23 00:59:00,1621E-3,5C000400,-0724,0836,11998,027.3,045.4,0.257,774.0,01.15,0.508
2016-02-23 01:00:00,1734E-3,5C000400,-0724,0835,12007,027.3,045.4,0.257,774.0,01.15,0.508
2016-02-23 01:01:00,1606E-3,5C000400,-0724,0835,12235,027.4,045.4,0.257,774.0,01.15,0.508
2016-02-23 01:02:00,1754E-3,5C000400,-0724,0836,12049,027.3,045.4,0.258,774.0,01.15,0.508
2016-02-23 01:03:00,1759E-3,5C000400,-0724,0836,12025,027.3,045.4,0.257,774.0,01.15,0.508
2016-02-23 01:04:00,1656E-3,5C000400,-0724,0836,12018,027.3,045.4,0.257,774.0,01.15,0.508
2016-02-23 01:05:00,1861E-3,5C000400,-0724,0836,12158,027.3,045.4,0.257,774.0,01.15,0.508
2016-02-23 01:06:00,1796E-3,5C000400,-0724,0835,12127,027.3,045.4,0.257,774.0,01.15,0.508
2016-02-23 01:07:00,1866E-3,5C000400,-0724,0836,12023,027.4,045.4,0.257,774.0,01.15,0.508
2016-02-23 01:08:00,1834E-3,5C000400,-0724,0836,11972,027.4,045.4,0.257,774.0,01.15,0.508
2016-02-23 01:09:00,1830E-3,5C000400,-0724,0837,12216,027.4,045.4,0.257,774.0,01.15,0.508
2016-02-23 01:10:00,1745E-3,5C000400,-0724,0836,11931,027.4,045.4,0.257,774.0,01.15,0.508
2016-02-23 01:11:00,1742E-3,5C000400,-0724,0836,12107,027.4,045.4,0.257,774.0,01.15,0.508
2016-02-23 01:12:00,1734E-3,5C000400,-0724,0836,12077,027.4,045.4,0.257,774.0,01.15,0.508
2016-02-23 01:13:00,1742E-3,5C000400,-0724,0836,12055,027.4,045.4,0.257,773.9,01.15,0.508
2016-02-23 01:14:00,1831E-3,5C000400,-0724,0837,12228,027.4,045.4,0.257,773.9,01.15,0.508
2016-02-23 01:15:00,1850E-3,5C000400,-0724,0836,12155,027.4,045.4,0.257,773.9,01.15,0.508
2016-02-23 01:16:00,1762E-3,5C000400,-0724,0836,12000,027.4,045.4,0.257,773.9,01.15,0.508
2016-02-23 01:17:00,1766E-3,5C000400,-0724,0836,12197,027.4,045.4,0.257,773.9,01.15,0.508
2016-02-23 01:18:00,1725E-3,5C000400,-0724,0836,12093,027.4,045.4,0.257,773.9,01.15,0.508
2016-02-23 01:19:00,1853E-3,5C000400,-0724,0836,12044,027.4,045.4,0.257,773.8,01.15,0.508
2016-02-23 01:20:00,1761E-3,5C000400,-0724,0836,12082,027.4,045.4,0.257,773.8,01.15,0.508
2016-02-23 01:21:00,1824E-3,5C000400,-0724,0836,12173,027.4,045.4,0.257,773.8,01.15,0.508
2016-02-23 01:22:00,1674E-3,5C000400,-0724,0836,12131,027.4,045.4,0.257,773.8,01.15,0.508
2016-02-23 01:23:00,1667E-3,5C000400,-0724,0836,12216,027.4,045.4,0.257,773.8,01.15,0.508
2016-02-23 01:24:00,1742E-3,5C000400,-0724,0836,12109,027.5,045.4,0.257,773.8,01.15,0.508
2016-02-23 01:25:00,1644E-3,5C000400,-0724,0836,12020,027.5,045.4,0.257,773.8,01.15,0.508
2016-02-23 01:26:00,1775E-3,5C000400,-0724,0836,12140,027.5,045.4,0.257,773.8,01.15,0.508
2016-02-23 01:27:00,1776E-3,5C000400,-0724,0836,11971,027.5,045.4,0.257,773.8,01.15,0.508
2016-02-23 01:28:00,1724E-3,5C000400,-0724,0836,12012,027.5,045.4,0.257,773.9,01.15,0.508
2016-02-23 01:29:00,1758E-3,5C000400,-0724,0836,12268,027.5,045.4,0.257,773.8,01.15,0.508
2016-02-23 01:30:00,1695E-3,5C000400,-0724,0835,12178,027.5,045.4,0.257,773.8,01.15,0.508
2016-02-23 01:31:00,1688E-3,5C000400,-0724,0835,12179,027.5,045.4,0.257,773.8,01.15,0.508
2016-02-23 01:32:00,1841E-3,5C000400,-0724,0836,12050,027.5,045.4,0.257,773.8,01.15,0.508
2016-02-23 01:33:00,1750E-3,5C000400,-0724,0835,12159,027.5,045.4,0.257,773.8,01.15,0.508
2016-02-23 01:34:00,1725E-3,5C000400,-0724,0836,12108,027.6,045.4,0.256,773.8,01.15,0.508
2016-02-23 01:35:00,1760E-3,5C000400,-0724,0837,12176,027.5,045.4,0.257,773.8,01.15,0.508
2016-02-23 01:36:00,1786E-3,5C000400,-0724,0835,12219,027.5,045.4,0.257,773.8,01.15,0.508
2016-02-23 01:37:00,1792E-3,5C000400,-0724,0836,12045,027.5,045.4,0.256,773.8,01.15,0.508
2016-02-23 01:38:00,1693E-3,5C000400,-0724,0837,12127,027.6,045.4,0.257,773.8,01.15,0.508
2016-02-23 01:39:00,1819E-3,5C000400,-0724,0836,12134,027.6,045.4,0.257,773.8,01.15,0.508
2016-02-23 01:40:00,1674E-3,5C000400,-0724,0836,12121,027.6,045.4,0.257,773.8,01.15,0.508
2016-02-23 01:41:00,1760E-3,5C000400,-0724,0837,12122,027.6,045.4,0.257,773.8,01.15,0.508
2016-02-23 01:42:00,1779E-3,5C000400,-0724,0837,12177,027.6,045.4,0.257,773.8,01.15,0.508
2016-02-23 01:43:00,1739E-3,5C000400,-0724,0837,12029,027.6,045.4,0.257,773.8,01.15,0.508
2016-02-23 01:44:00,1846E-3,5C000400,-0724,0836,12031,027.6,045.4,0.257,773.8,01.15,0.508
2016-02-23 01:45:00,1718E-3,5C000400,-0724,0836,12237,027.6,045.4,0.257,773.8,01.15,0.508
2016-02-23 01:46:00,1812E-3,5C000400,-0724,0837,12219,027.7,045.4,0.256,773.8,01.15,0.508
2016-02-23 01:47:00,1771E-3,5C000400,-0724,0837,12162,027.7,045.4,0.257,773.8,01.15,0.508
2016-02-23 01:48:00,1925E-3,5C000400,-0724,0836,12066,027.7,045.4,0.256,773.8,01.15,0.508
2016-02-23 01:49:00,1660E-3,5C000400,-0724,0837,12226,027.7,045.4,0.257,773.8,01.15,0.508
2016-02-23 01:50:00,1695E-3,5C000400,-0724,0836,12154,027.7,045.4,0.256,773.8,01.15,0.508
2016-02-23 01:51:00,1757E-3,5C000400,-0724,0836,12401,027.7,045.4,0.257,773.8,01.15,0.508
2016-02-23 01:52:00,1627E-3,5C000400,-0724,0836,12064,027.7,045.4,0.257,773.8,01.15,0.508
2016-02-23 01:53:00,1786E-3,5C000400,-0724,0836,12152,027.7,045.4,0.257,773.8,01.15,0.508
2016-02-23 01:54:00,1770E-3,5C000400,-0724,0835,12151,027.7,045.4,0.257,773.8,01.15,0.508
2016-02-23 01:55:00,1725E-3,5C000400,-0724,0835,12141,027.7,045.4,0.257,773.8,01.15,0.508
2016-02-23 01:56:00,1764E-3,5C000400,-0724,0835,12261,027.7,045.4,0.257,773.8,01.15,0.508
2016-02-23 01:57:00,1645E-3,5C000400,-0724,0836,12260,027.7,045.4,0.256,773.8,01.15,0.508
2016-02-23 01:58:00,1798E-3,5C000400,-0724,0836,12113,027.7,045.4,0.257,773.8,01.15,0.508
2016-02-23 01:59:00,1696E-3,5C000400,-0724,0836,12166,027.7,045.4,0.256,773.7,01.15,0.508
2016-02-23 02:00:00,1772E-3,5C000400,-0724,0837,11904,027.7,045.4,0.257,773.7,01.15,0.508
2016-02-23 02:01:00,1753E-3,5C000400,-0724,0836,12131,027.8,045.4,0.256,773.7,01.15,0.508
2016-02-23 02:02:00,1799E-3,5C000400,-0724,0836,11982,027.8,045.4,0.257,773.8,01.15,0.508
2016-02-23 02:03:00,1799E-3,5C000400,-0724,0837,12004,027.8,045.4,0.257,773.8,01.15,0.508
2016-02-23 02:04:00,1794E-3,5C000400,-0724,0837,12120,027.8,045.4,0.256,773.8,01.15,0.508
2016-02-23 02:05:00,1792E-3,5C000400,-0724,0837,12161,027.8,045.4,0.257,773.8,01.15,0.508
2016-02-23 02:06:00,1581E-3,5C000400,-0724,0836,12143,027.8,045.4,0.257,773.8,01.15,0.508
2016-02-23 02:07:00,1783E-3,5C000400,-0724,0836,12124,027.8,045.4,0.256,773.8,01.15,0.508
2016-02-23 02:08:00,1829E-3,5C000400,-0724,0836,12235,027.8,045.4,0.257,773.8,01.15,0.508
2016-02-23 02:09:00,1729E-3,5C000400,-0724,0836,12045,027.8,045.4,0.256,773.8,01.15,0.508
2016-02-23 02:10:00,1870E-3,5C000400,-0724,0836,11990,027.8,045.4,0.256,773.8,01.15,0.508
2016-02-23 02:11:00,1785E-3,5C000400,-0724,0836,12007,027.8,045.4,0.257,773.8,01.15,0.508
2016-02-23 02:12:00,1810E-3,5C000400,-0724,0836,12139,027.8,045.4,0.256,773.7,01.15,0.508
2016-02-23 02:13:00,1765E-3,5C000400,-0724,0836,12211,027.8,045.4,0.257,773.7,01.15,0.508
2016-02-23 02:14:00,1705E-3,5C000400,-0724,0836,12145,027.8,045.4,0.256,773.7,01.15,0.508
2016-02-23 02:15:00,1717E-3,5C000400,-0724,0837,12188,027.9,045.4,0.256,773.7,01.15,0.508
2016-02-23 02:16:00,1860E-3,5C000400,-0724,0836,12063,027.9,045.4,0.256,773.7,01.15,0.508
2016-02-23 02:17:00,1759E-3,5C000400,-0724,0835,12156,027.9,045.4,0.256,773.7,01.15,0.508
2016-02-23 02:18:00,1825E-3,5C000400,-0724,0836,12272,027.9,045.4,0.257,773.7,01.15,0.508
2016-02-23 02:19:00,1709E-3,5C000400,-0724,0837,12123,027.9,045.4,0.256,773.7,01.15,0.508
2016-02-23 02:20:00,1823E-3,5C000400,-0724,0837,12187,027.9,045.4,0.257,773.7,01.15,0.508
2016-02-23 02:21:00,1771E-3,5C000400,-0724,0837,12248,027.9,045.4,0.256,773.7,01.15,0.508
2016-02-23 02:22:00,1920E-3,5C000400,-0724,0837,12082,027.9,045.4,0.257,773.7,01.15,0.508
2016-02-23 02:23:00,1811E-3,5C000400,-0724,0836,12023,027.9,045.4,0.256,773.7,01.15,0.508
2016-02-23 02:24:00,1829E-3,5C000400,-0724,0836,12128,027.9,045.4,0.256,773.7,01.15,0.508
2016-02-23 02:25:00,1759E-3,5C000400,-0724,0837,12104,027.9,045.4,0.256,773.7,01.15,0.508
2016-02-23 02:26:00,1879E-3,5C000400,-0724,0836,12025,027.9,045.4,0.256,773.7,01.15,0.508
2016-02-23 02:27:00,1910E-3,5C000400,-0724,0836,12158,027.9,045.4,0.256,773.7,01.15,0.508
2016-02-23 02:28:00,1647E-3,5C000400,-0724,0836,12072,028.0,045.4,0.256,773.7,01.15,0.508
2016-02-23 02:29:00,1882E-3,5C000400,-0724,0836,12234,027.9,045.4,0.256,773.7,01.15,0.508
2016-02-23 02:30:00,1908E-3,5C000400,-0724,0837,12041,028.0,045.4,0.256,773.7,01.15,0.508
2016-02-23 02:31:00,1709E-3,5C000400,-0724,0836,12063,028.0,045.4,0.256,773.7,01.15,0.508
2016-02-23 02:32:00,1737E-3,5C000400,-0724,0837,12178,028.0,045.4,0.256,773.7,01.15,0.508
2016-02-23 02:33:00,1690E-3,5C000400,-0724,0836,12123,028.0,045.4,0.256,773.7,01.15,0.508
2016-02-23 02:34:00,1836E-3,5C000400,-0724,0836,12028,028.0,045.4,0.256,773.7,01.15,0.508
2016-02-23 02:35:00,1633E-3,5C000400,-0724,0836,12250,028.0,045.4,0.256,773.7,01.15,0.508
2016-02-23 02:36:00,1639E-3,5C000400,-0724,0836,12117,028.0,045.4,0.256,773.8,01.15,0.508
2016-02-23 02:37:00,1710E-3,5C000400,-0724,0836,12099,028.0,045.4,0.256,773.7,01.15,0.508
2016-02-23 02:38:00,1660E-3,5C000400,-0724,0837,12135,028.0,045.4,0.256,773.7,01.15,0.508
2016-02-23 02:39:00,1678E-3,5C000400,-0724,0836,12052,028.0,045.4,0.256,773.7,01.15,0.508
2016-02-23 02:40:00,1817E-3,5C000400,-0724,0836,12065,028.0,045.4,0.256,773.7,01.15,0.508
2016-02-23 02:41:00,1699E-3,5C000400,-0724,0836,12021,028.0,045.4,0.256,773.7,01.15,0.508
2016-02-23 02:42:00,1689E-3,5C000400,-0724,0836,12127,028.0,045.4,0.256,773.7,01.15,0.508
2016-02-23 02:43:00,1762E-3,5C000400,-0724,0836,12203,028.1,045.4,0.256,773.7,01.15,0.508
2016-02-23 02:44:00,1849E-3,5C000400,-0724,0836,12105,028.1,045.4,0.256,773.7,01.15,0.508
2016-02-23 02:45:00,1861E-3,5C000400,-0724,0836,12005,028.0,045.4,0.256,773.7,01.15,0.508
2016-02-23 02:46:00,1759E-3,5C000400,-0724,0837,12136,028.0,045.4,0.256,773.7,01.15,0.508
2016-02-23 02:47:00,1742E-3,5C000400,-0724,0836,12207,028.1,045.4,0.256,773.7,01.15,0.508
2016-02-23 02:48:00,1801E-3,5C000400,-0724,0836,12095,028.1,045.4,0.256,773.7,01.15,0.508
2016-02-23 02:49:00,1836E-3,5C000400,-0724,0836,12186,028.1,045.4,0.256,773.7,01.15,0.508
2016-02-23 02:50:00,1856E-3,5C000400,-0724,0837,12176,028.1,045.4,0.255,773.7,01.15,0.508
2016-02-23 02:51:00,1808E-3,5C000400,-0724,0837,12141,028.1,045.4,0.256,773.7,01.15,0.508
2016-02-23 02:52:00,1773E-3,5C000400,-0724,0836,12133,028.1,045.4,0.256,773.7,01.15,0.508
2016-02-23 02:53:00,1771E-3,5C000400,-0724,0837,12268,028.1,045.4,0.256,773.6,01.15,0.508
2016-02-23 02:54:00,1877E-3,5C000400,-0724,0836,12215,028.1,045.4,0.256,773.7,01.15,0.508
2016-02-23 02:55:00,1854E-3,5C000400,-0724,0836,12046,028.2,045.4,0.256,773.7,01.15,0.508
2016-02-23 02:56:00,1787E-3,5C000400,-0724,0837,12163,028.2,045.4,0.256,773.7,01.15,0.508
2016-02-23 02:57:00,1621E-3,5C000400,-0724,0837,12105,028.2,045.4,0.256,773.6,01.15,0.508
2016-02-23 02:58:00,1815E-3,5C000400,-0724,0836,12003,028.2,045.4,0.256,773.6,01.15,0.508
2016-02-23 02:59:00,1794E-3,5C000400,-0724,0837,12246,028.2,045.4,0.256,773.6,01.15,0.508
2016-02-23 03:00:00,1816E-3,5C000400,-0724,0836,12285,028.2,045.4,0.256,773.6,01.15,0.508
2016-02-23 03:01:00,1766E-3,5C000400,-0724,0837,12073,028.2,045.4,0.256,773.6,01.15,0.508
2016-02-23 03:02:00,1935E-3,5C000400,-0724,0836,12142,028.2,045.4,0.256,773.6,01.15,0.508
2016-02-23 03:03:00,1768E-3,5C000400,-0724,0836,12096,028.2,045.4,0.256,773.6,01.15,0.508
2016-02-23 03:04:00,1737E-3,5C000400,-0724,0836,12171,028.2,045.4,0.256,773.6,01.15,0.508
2016-02-23 03:05:00,1877E-3,5C000400,-0724,0837,12224,028.2,045.4,0.256,773.6,01.15,0.508
2016-02-23 03:06:00,1759E-3,5C000400,-0724,0836,12115,028.2,045.4,0.256,773.6,01.15,0.508
2016-02-23 03:07:00,1819E-3,5C000400,-0724,0837,12272,028.2,045.5,0.256,773.6,01.15,0.508
2016-02-23 03:08:00,1734E-3,5C000400,-0724,0837,12235,028.2,045.4,0.256,773.6,01.15,0.508
2016-02-23 03:09:00,1751E-3,5C000400,-0724,0836,12018,028.2,045.4,0.256,773.6,01.15,0.508
2016-02-23 03:10:00,1790E-3,5C000400,-0724,0836,12048,028.2,045.4,0.256,773.6,01.15,0.508
2016-02-23 03:11:00,1815E-3,5C000400,-0724,0837,12212,028.2,045.4,0.256,773.6,01.15,0.508
2016-02-23 03:12:00,1758E-3,5C000400,-0724,0837,12250,028.2,045.4,0.256,773.6,01.15,0.508
2016-02-23 03:13:00,1709E-3,5C000400,-0724,0836,12161,028.3,045.4,0.256,773.6,01.15,0.508
2016-02-23 03:14:00,1724E-3,5C000400,-0724,0836,12131,028.3,045.4,0.256,773.6,01.15,0.508
2016-02-23 03:15:00,1646E-3,5C000400,-0724,0836,12036,028.3,045.4,0.255,773.5,01.15,0.508
2016-02-23 03:16:00,1814E-3,5C000400,-0724,0837,12293,028.3,045.4,0.256,773.5,01.15,0.508
2016-02-23 03:17:00,1677E-3,5C000400,-0724,0837,12101,028.3,045.4,0.256,773.5,01.15,0.508
2016-02-23 03:18:00,1849E-3,5C000400,-0724,0837,12143,028.3,045.4,0.255,773.5,01.15,0.508
2016-02-23 03:19:00,1704E-3,5C000400,-0724,0836,12207,028.3,045.4,0.256,773.5,01.15,0.508
2016-02-23 03:20:00,1773E-3,5C000400,-0724,0837,12140,028.3,045.4,0.255,773.5,01.15,0.508
2016-02-23 03:21:00,1767E-3,5C000400,-0724,0836,12020,028.3,045.4,0.256,773.5,01.15,0.508
2016-02-23 03:22:00,1680E-3,5C000400,-0724,0837,12182,028.3,045.4,0.256,773.5,01.15,0.508
2016-02-23 03:23:00,1691E-3,5C000400,-0724,0836,12246,028.3,045.4,0.255,773.5,01.15,0.508
2016-02-23 03:24:00,1874E-3,5C000400,-0724,0836,12098,028.4,045.4,0.256,773.5,01.15,0.508
2016-02-23 03:25:00,1739E-3,5C000400,-0724,0837,12159,028.3,045.4,0.256,773.5,01.15,0.508
2016-02-23 03:26:00,1830E-3,5C000400,-0724,0836,12110,028.4,045.4,0.255,773.4,01.15,0.508
2016-02-23 03:27:00,1711E-3,5C000400,-0724,0837,12147,028.4,045.4,0.256,773.5,01.15,0.508
2016-02-23 03:28:00,1814E-3,5C000400,-0724,0837,12105,028.4,045.4,0.255,773.5,01.15,0.508
2016-02-23 03:29:00,1765E-3,5C000400,-0724,0837,12124,028.4,045.4,0.256,773.5,01.15,0.508
2016-02-23 03:30:00,1670E-3,5C000400,-0724,0836,12031,028.4,045.4,0.255,773.5,01.15,0.508
2016-02-23 03:31:00,1779E-3,5C000400,-0724,0836,12251,028.4,045.4,0.255,773.5,01.15,0.508
2016-02-23 03:32:00,1679E-3,5C000400,-0724,0837,12222,028.4,045.4,0.255,773.5,01.15,0.508
2016-02-23 03:33:00,1777E-3,5C000400,-0724,0837,12007,028.4,045.4,0.255,773.5,01.15,0.508
2016-02-23 03:34:00,1861E-3,5C000400,-0724,0837,12168,028.4,045.4,0.255,773.4,01.15,0.508
2016-02-23 03:35:00,1623E-3,5C000400,-0724,0836,12171,028.5,045.4,0.255,773.5,01.15,0.508
2016-02-23 03:36:00,1755E-3,5C000400,-0724,0836,12171,028.4,045.4,0.255,773.4,01.15,0.508
2016-02-23 03:37:00,1772E-3,5C000400,-0724,0836,12144,028.4,045.4,0.255,773.4,01.15,0.508
2016-02-23 03:38:00,1692E-3,5C000400,-0724,0836,12228,028.4,045.4,0.255,773.4,01.15,0.508
2016-02-23 03:39:00,1576E-3,5C000400,-0724,0837,12168,028.4,045.4,0.255,773.4,01.15,0.508
2016-02-23 03:40:00,1685E-3,5C000400,-0724,0837,12138,028.4,045.4,0.256,773.4,01.15,0.508
2016-02-23 03:41:00,1815E-3,5C000400,-0724,0836,11959,028.4,045.4,0.255,773.4,01.15,0.508
2016-02-23 03:42:00,1788E-3,5C000400,-0724,0836,11963,028.4,045.4,0.255,773.3,01.15,0.508
2016-02-23 03:43:00,1742E-3,5C000400,-0724,0836,12146,028.4,045.4,0.256,773.3,01.15,0.508
2016-02-23 03:44:00,1733E-3,5C000400,-0724,0837,12133,028.4,045.4,0.256,773.4,01.15,0.508
2016-02-23 03:45:00,1719E-3,5C000400,-0724,0837,12243,028.4,045.4,0.255,773.4,01.15,0.508
2016-02-23 03:46:00,1694E-3,5C000400,-0724,0837,12176,028.4,045.4,0.255,773.4,01.15,0.508
2016-02-23 03:47:00,1721E-3,5C000400,-0724,0836,12217,028.4,045.4,0.255,773.4,01.15,0.508
2016-02-23 03:48:00,1694E-3,5C000400,-0724,0837,12172,028.4,045.4,0.255,773.4,01.15,0.508
2016-02-23 03:49:00,1653E-3,5C000400,-0724,0836,12222,028.4,045.4,0.255,773.4,01.15,0.508
2016-02-23 03:50:00,1711E-3,5C000400,-0724,0837,12108,028.4,045.4,0.255,773.4,01.15,0.508
2016-02-23 03:51:00,1756E-3,5C000400,-0724,0837,12174,028.4,045.4,0.255,773.4,01.15,0.508
2016-02-23 03:52:00,1804E-3,5C000400,-0724,0837,12050,028.4,045.4,0.255,773.4,01.15,0.508
2016-02-23 03:53:00,1754E-3,5C000400,-0724,0836,12080,028.4,045.4,0.255,773.4,01.15,0.508
2016-02-23 03:54:00,1801E-3,5C000400,-0724,0837,12199,028.4,045.4,0.255,773.4,01.15,0.508
2016-02-23 03:55:00,1838E-3,5C000400,-0724,0837,12140,028.4,045.4,0.255,773.4,01.15,0.508
2016-02-23 03:56:00,1875E-3,5C000400,-0724,0836,12186,028.4,045.4,0.255,773.4,01.15,0.508
2016-02-23 03:57:00,1666E-3,5C000400,-0724,0836,12135,028.4,045.4,0.256,773.4,01.15,0.508
2016-02-23 03:58:00,1752E-3,5C000400,-0724,0837,12109,028.4,045.4,0.255,773.4,01.15,0.508
2016-02-23 03:59:00,1909E-3,5C000400,-0724,0836,12093,028.4,045.5,0.255,773.4,01.15,0.508
2016-02-23 04:00:00,1879E-3,5C000400,-0724,0836,12062,028.4,045.4,0.255,773.4,01.15,0.508
2016-02-23 04:01:00,1857E-3,5C000400,-0724,0836,12056,028.4,045.4,0.255,773.4,01.15,0.508
2016-02-23 04:02:00,1869E-3,5C000400,-0724,0836,12100,028.4,045.4,0.255,773.4,01.15,0.508
2016-02-23 04:03:00,1729E-3,5C000400,-0724,0837,12126,028.5,045.4,0.255,773.4,01.15,0.508
2016-02-23 04:04:00,1528E-3,5C000400,-0724,0837,12052,028.5,045.4,0.255,773.4,01.15,0.508
2016-02-23 04:05:00,1734E-3,5C000400,-0724,0836,12059,028.4,045.4,0.255,773.4,01.15,0.508
2016-02-23 04:06:00,1746E-3,5C000400,-0724,0836,12047,028.4,045.4,0.255,773.4,01.15,0.508
2016-02-23 04:07:00,1694E-3,5C000400,-0724,0837,12133,028.5,045.4,0.255,773.4,01.15,0.508
2016-02-23 04:08:00,1694E-3,5C000400,-0724,0836,12126,028.5,045.4,0.255,773.3,01.15,0.508
2016-02-23 04:09:00,1795E-3,5C000400,-0724,0836,12062,028.5,045.4,0.255,773.4,01.15,0.508
2016-02-23 04:10:00,1808E-3,5C000400,-0724,0836,12128,028.5,045.4,0.255,773.4,01.15,0.508
2016-02-23 04:11:00,1764E-3,5C000400,-0724,0836,12191,028.5,045.4,0.255,773.4,01.15,0.508
2016-02-23 04:12:00,1960E-3,5C000400,-0724,0836,12201,028.5,045.4,0.255,773.4,01.15,0.508
2016-02-23 04:13:00,1703E-3,5C000400,-0724,0836,12106,028.5,045.4,0.255,773.4,01.15,0.508
2016-02-23 04:14:00,1728E-3,5C000400,-0724,0836,12175,028.5,045.4,0.255,773.4,01.15,0.508
2016-02-23 04:15:00,1794E-3,5C000400,-0724,0836,12182,028.5,045.4,0.255,773.4,01.15,0.508
2016-02-23 04:16:00,1851E-3,5C000400,-0724,0836,12165,028.5,045.4,0.255,773.4,01.15,0.508
2016-02-23 04:17:00,1861E-3,5C000400,-0724,0836,12041,028.5,045.4,0.255,773.4,01.15,0.508
2016-02-23 04:18:00,1715E-3,5C000400,-0724,0836,12148,028.6,045.5,0.255,773.4,01.15,0.508
2016-02-23 04:19:00,1853E-3,5C000400,-0724,0836,12228,028.5,045.4,0.255,773.3,01.15,0.508
2016-02-23 04:20:00,1754E-3,5C000400,-0724,0837,12167,028.6,045.4,0.255,773.3,01.15,0.508